Location: Unspecified
(0.0000°N, 0.0000°E)
Time: 09:37:55
(UTC+00:00)

GALILEO 8 (264) - Pass Details

Date: 14 December 2022
Orbit: 23209 x 23234 km, 56.9° (Epoch: 05 February)

Event Time Altitude Azimuth Distance (km) Brightness Sun altitude
Rises 20:00:00 0° 215° (SW) 28,899 ? -28.5°
Reaches altitude 10° 20:36:44 10° 220° (SW) 27,808 ? -36.6°
Maximum altitude 05:58:32 60° 93° (E) 23,895 ? 0.8°
Drops below altitude 10° 09:01:15 10° 153° (SSE) 27,806 ? 41.8°
Sets 09:38:02 0° 149° (SSE) 28,898 ? 49.4°
